Hayward, WI

4:46 PM CDT on August 19, 2017 (GMT -0500)
Sawyer County

Weather History for KHYR - October, 2013

Change the Weather History Date:

Monday, October 28, 2013

  Actual Average Record
Temperature  
Mean Temperature 34 °F -  
Max Temperature 41 °F 51 °F 62 °F (1998)
Min Temperature 25 °F 27 °F 9 °F (1967)
Degree Days  
Heating Degree Days 31    
Moisture  
Dew Point 21 °F    
Average Humidity 65    
Maximum Humidity 85    
Minimum Humidity 35    
Precipitation  
Precipitation 0.00 in - - ()
Sea Level Pressure  
Sea Level Pressure 30.42 in    
Wind  
Wind Speed 8 mph (NE)    
Max Wind Speed 15 mph    
Max Gust Speed 24 mph    
Visibility 10 miles    
Events      
Averages and records for this station are not official NWS values.
T = Trace of Precipitation, MM = Missing Value Source: NWS Daily Summary

Daily Weather History Graph

Daily Weather History Graph

Search for Another Location

Airport or City:

Trip Planner

Search our weather history database for the weather conditions in past years. The results will help you decide how hot, cold, wet, or windy it might be!

Date:

Astronomy

Oct. 28, 2013 Rise Set
Actual Time 7:41 AM CDT 5:57 PM CDT
Civil Twilight 7:10 AM CDT 6:28 PM CDT
Nautical Twilight 6:34 AM CDT 7:03 PM CDT
Astronomical Twilight 6:00 AM CDT 7:37 PM CDT
Moon 1:15 AM CDT (10/28) 2:56 PM CDT (10/28)
Length of Visible Light 11h 18m
Length of Day
10h 16m
Waning Crescent, 34% of the Moon is Illuminated
Oct 28
Waning Crescent
Nov 3
New
Nov 9
First Quarter
Nov 17
Full
Nov 25
Last Quarter

Hourly Weather History & Observations

Time (CDT) Temp. Windchill Dew Point Humidity Pressure Visibility Wind Dir Wind Speed Gust Speed Precip Events Conditions
12:10 AM 35.6 °F 28.6 °F 26.6 °F 70% 30.20 in 10.0 mi NNE 9.2 mph 17.3 mph N/A   Overcast
12:53 AM 35.1 °F 25.5 °F 25.0 °F 67% 30.25 in 10.0 mi NE 15.0 mph 19.6 mph N/A   Overcast
1:32 AM 35.6 °F 29.2 °F 24.8 °F 65% 30.24 in 10.0 mi NNE 8.1 mph - N/A   Overcast
1:53 AM 34.0 °F 26.0 °F 25.0 °F 70% 30.29 in 10.0 mi NE 10.4 mph 24.2 mph N/A   Overcast
2:53 AM 32.0 °F 22.5 °F 23.0 °F 69% 30.32 in 10.0 mi NNE 12.7 mph 21.9 mph N/A   Overcast
3:06 AM 30.2 °F 21.3 °F 21.2 °F 69% 30.28 in 10.0 mi NNE 10.4 mph 18.4 mph N/A   Overcast
3:53 AM 30.0 °F 23.2 °F 21.9 °F 72% 30.34 in 10.0 mi NE 6.9 mph - N/A   Mostly Cloudy
4:53 AM 28.0 °F - 21.0 °F 75% 30.37 in 10.0 mi Calm Calm - N/A   Mostly Cloudy
5:53 AM 27.0 °F - 21.9 °F 81% 30.40 in 10.0 mi Calm Calm - N/A   Overcast
6:53 AM 27.0 °F - 21.9 °F 81% 30.42 in 10.0 mi Calm Calm - N/A   Overcast
7:53 AM 28.0 °F 20.8 °F 19.9 °F 72% 30.45 in 10.0 mi East 6.9 mph - N/A   Partly Cloudy
8:53 AM 30.9 °F 22.8 °F 19.9 °F 64% 30.49 in 10.0 mi East 9.2 mph - N/A   Partly Cloudy
9:53 AM 35.1 °F 30.1 °F 19.9 °F 54% 30.51 in 10.0 mi East 5.8 mph - N/A   Scattered Clouds
10:53 AM 36.0 °F 28.5 °F 19.0 °F 50% 30.51 in 10.0 mi ENE 10.4 mph 16.1 mph N/A   Mostly Cloudy
11:53 AM 37.9 °F 32.1 °F 18.0 °F 45% 30.51 in 10.0 mi East 8.1 mph - N/A   Partly Cloudy
12:53 PM 39.0 °F 32.3 °F 17.1 °F 41% 30.49 in 10.0 mi East 10.4 mph 18.4 mph N/A   Partly Cloudy
1:53 PM 39.9 °F 37.8 °F 17.1 °F 40% 30.48 in 10.0 mi Variable 3.5 mph - N/A   Clear
2:53 PM 39.9 °F 34.5 °F 16.0 °F 38% 30.47 in 10.0 mi SE 8.1 mph - N/A   Partly Cloudy
3:53 PM 41.0 °F 37.1 °F 15.1 °F 35% 30.46 in 10.0 mi East 5.8 mph - N/A   Clear
4:53 PM 37.9 °F 30.9 °F 21.9 °F 53% 30.47 in 10.0 mi NNE 10.4 mph 17.3 mph N/A   Clear
5:53 PM 34.0 °F 28.8 °F 23.0 °F 64% 30.49 in 10.0 mi NNE 5.8 mph - N/A   Clear
6:53 PM 30.9 °F 25.2 °F 23.0 °F 72% 30.49 in 10.0 mi NE 5.8 mph - N/A   Clear
7:53 PM 28.9 °F 23.9 °F 23.0 °F 78% 30.49 in 10.0 mi NNE 4.6 mph - N/A   Clear
8:53 PM 28.0 °F - 21.9 °F 78% 30.49 in 10.0 mi Calm Calm - N/A   Clear
9:53 PM 27.0 °F - 21.9 °F 81% 30.49 in 10.0 mi Calm Calm - N/A   Clear
10:53 PM 27.0 °F 23.0 °F 21.9 °F 81% 30.49 in 10.0 mi North 3.5 mph - N/A   Clear
11:53 PM 25.0 °F - 21.0 °F 85% 30.49 in 10.0 mi Calm Calm - N/A   Clear